ANA1655 RJOO-RJSK

Flight info

Callsign ANA1655
Flight time 1h 1m
Altitude 37000
Route MINAC YOKKA KCC Y312 YAYOI
Aircraft B736/M-SDE2E3FGHIRWXY/LB1

Departure

Time 2026-04-15 13:12
Airport Osaka Itami International Airport (RJOO)

Arrival

Time 2026-04-15 14:13
Airport Akita Airport (RJSK)
Time Latitude Longitude Altitude Speed Heading
2026-04-15 12:49 34.78697 135.44329 48 ft 0 kts 30°
2026-04-15 13:03 34.78689 135.44323 48 ft 3 kts 30°
2026-04-15 13:03 34.78672 135.44312 46 ft 3 kts 30°
2026-04-15 13:03 34.78656 135.44300 46 ft 3 kts 30°
2026-04-15 13:03 34.78640 135.44289 45 ft 3 kts 30°
2026-04-15 13:04 34.78627 135.44280 48 ft 0 kts 30°
2026-04-15 13:07 34.78636 135.44277 45 ft 3 kts 337°
2026-04-15 13:07 34.78660 135.44227 46 ft 12 kts 309°
2026-04-15 13:07 34.78742 135.44128 48 ft 19 kts 315°
2026-04-15 13:07 34.78835 135.44016 47 ft 18 kts 315°
2026-04-15 13:08 34.78924 135.43909 48 ft 18 kts 314°
2026-04-15 13:08 34.79009 135.43804 48 ft 17 kts 316°
2026-04-15 13:08 34.79059 135.43681 47 ft 17 kts 275°
2026-04-15 13:08 34.79103 135.43563 49 ft 16 kts 318°
2026-04-15 13:09 34.79180 135.43470 47 ft 15 kts 315°
2026-04-15 13:09 34.79253 135.43380 49 ft 15 kts 315°
2026-04-15 13:09 34.79324 135.43295 47 ft 14 kts 316°
2026-04-15 13:09 34.79387 135.43194 49 ft 16 kts 278°
2026-04-15 13:10 34.79329 135.43088 49 ft 15 kts 225°
2026-04-15 13:10 34.79254 135.42999 49 ft 15 kts 225°
2026-04-15 13:10 34.79180 135.42916 49 ft 14 kts 209°
2026-04-15 13:10 34.79093 135.42917 48 ft 14 kts 135°
2026-04-15 13:11 34.79084 135.42929 50 ft 0 kts 134°
2026-04-15 13:11 34.78991 135.43041 50 ft 56 kts 135°
2026-04-15 13:11 34.78522 135.43608 46 ft 131 kts 135°
2026-04-15 13:11 34.77727 135.44568 73 ft 188 kts 134°
2026-04-15 13:12 34.76827 135.45707 903 ft 183 kts 128°
2026-04-15 13:12 34.76443 135.47032 2017 ft 162 kts 78°
2026-04-15 13:12 34.77042 135.48159 2768 ft 174 kts 36°
2026-04-15 13:12 34.78117 135.49115 3081 ft 208 kts 44°
2026-04-15 13:13 34.79051 135.50599 3393 ft 237 kts 63°
2026-04-15 13:13 34.79562 135.52605 3998 ft 256 kts 80°
2026-04-15 13:13 34.79635 135.54809 4924 ft 265 kts 91°
2026-04-15 13:13 34.79483 135.57057 5937 ft 268 kts 92°
2026-04-15 13:14 34.79307 135.59338 6893 ft 273 kts 91°
2026-04-15 13:14 34.79154 135.61672 7768 ft 280 kts 91°
2026-04-15 13:14 34.79026 135.64061 8661 ft 286 kts 91°
2026-04-15 13:14 34.78913 135.66508 9558 ft 293 kts 91°
2026-04-15 13:15 34.78802 135.69009 10373 ft 301 kts 91°
2026-04-15 13:15 34.78734 135.71656 10708 ft 325 kts 85°
2026-04-15 13:15 34.79110 135.74411 11326 ft 335 kts 73°
2026-04-15 13:15 34.79839 135.77087 12151 ft 340 kts 68°
2026-04-15 13:16 34.80699 135.79784 12996 ft 345 kts 66°
2026-04-15 13:16 34.81601 135.82528 13842 ft 351 kts 67°
2026-04-15 13:16 34.82509 135.85321 14580 ft 359 kts 67°
2026-04-15 13:16 34.83423 135.88186 15329 ft 366 kts 67°
2026-04-15 13:17 34.84340 135.91110 16080 ft 373 kts 68°
2026-04-15 13:17 34.85265 135.94091 16857 ft 380 kts 68°
2026-04-15 13:17 34.86202 135.97130 17586 ft 387 kts 68°
2026-04-15 13:17 34.87152 136.00227 18324 ft 394 kts 68°
2026-04-15 13:18 34.88117 136.03377 19012 ft 399 kts 68°
2026-04-15 13:18 34.89093 136.06565 19736 ft 404 kts 68°
2026-04-15 13:18 34.89744 136.08696 20200 ft 407 kts 68°
2026-04-15 13:18 34.90739 136.11952 20900 ft 413 kts 68°
2026-04-15 13:19 34.92089 136.16373 21804 ft 420 kts 68°
2026-04-15 13:19 34.93113 136.19732 22481 ft 425 kts 69°
2026-04-15 13:19 34.93797 136.21980 22923 ft 429 kts 69°
2026-04-15 13:19 34.94840 136.25413 23573 ft 435 kts 69°
2026-04-15 13:20 34.95895 136.28888 24135 ft 440 kts 69°
2026-04-15 13:20 34.96960 136.32401 24741 ft 444 kts 69°
2026-04-15 13:20 34.98034 136.35948 25347 ft 447 kts 69°
2026-04-15 13:20 34.99117 136.39527 25919 ft 452 kts 69°
2026-04-15 13:21 35.00209 136.43139 26486 ft 456 kts 68°
2026-04-15 13:21 35.01467 136.46705 27025 ft 459 kts 60°
2026-04-15 13:21 35.03141 136.50026 27574 ft 461 kts 53°
2026-04-15 13:21 35.04973 136.53256 28112 ft 464 kts 52°
2026-04-15 13:22 35.06844 136.56484 28654 ft 468 kts 52°
2026-04-15 13:22 35.08703 136.59702 29166 ft 472 kts 52°
2026-04-15 13:22 35.10591 136.63007 29679 ft 476 kts 53°
2026-04-15 13:22 35.12483 136.66355 30126 ft 481 kts 53°
2026-04-15 13:23 35.14379 136.69738 30539 ft 484 kts 53°
2026-04-15 13:23 35.16285 136.73153 30939 ft 488 kts 53°
2026-04-15 13:23 35.18203 136.76593 31330 ft 492 kts 52°
2026-04-15 13:23 35.20135 136.80061 31700 ft 495 kts 52°
2026-04-15 13:24 35.22083 136.83556 32096 ft 498 kts 52°
2026-04-15 13:24 35.24030 136.87052 32595 ft 497 kts 51°
2026-04-15 13:24 35.26162 136.90340 33107 ft 490 kts 41°
2026-04-15 13:24 35.28601 136.93209 33595 ft 482 kts 32°
2026-04-15 13:25 35.31301 136.95571 34054 ft 475 kts 25°
2026-04-15 13:25 35.34068 136.97767 34436 ft 474 kts 25°
2026-04-15 13:25 35.36858 136.99949 34726 ft 477 kts 25°
2026-04-15 13:25 35.39660 137.02144 35032 ft 479 kts 25°
2026-04-15 13:26 35.42464 137.04361 35380 ft 480 kts 25°
2026-04-15 13:26 35.45261 137.06593 35709 ft 481 kts 25°
2026-04-15 13:26 35.48066 137.08847 36022 ft 482 kts 25°
2026-04-15 13:26 35.50870 137.11110 36337 ft 483 kts 25°
2026-04-15 13:27 35.53679 137.13383 36668 ft 484 kts 25°
2026-04-15 13:27 35.56457 137.15635 36924 ft 484 kts 25°
2026-04-15 13:27 35.62117 137.20224 36937 ft 488 kts 26°
2026-04-15 13:28 35.67761 137.24812 36928 ft 485 kts 26°
2026-04-15 13:28 35.73379 137.29382 36934 ft 483 kts 26°
2026-04-15 13:29 35.78983 137.33945 36942 ft 483 kts 26°
2026-04-15 13:29 35.84579 137.38509 36947 ft 482 kts 26°
2026-04-15 13:30 35.90173 137.43080 36950 ft 483 kts 26°
2026-04-15 13:30 35.95774 137.47664 36958 ft 484 kts 27°
2026-04-15 13:31 36.01386 137.52268 36964 ft 485 kts 27°
2026-04-15 13:31 36.06991 137.56872 36957 ft 485 kts 27°
2026-04-15 13:32 36.12610 137.61498 36965 ft 484 kts 27°
2026-04-15 13:32 36.18193 137.66100 36951 ft 486 kts 27°
2026-04-15 13:33 36.23820 137.70747 36955 ft 485 kts 27°
2026-04-15 13:33 36.29444 137.75400 36946 ft 487 kts 27°
2026-04-15 13:34 36.35069 137.80064 36977 ft 486 kts 27°
2026-04-15 13:34 36.40690 137.84732 36987 ft 486 kts 28°
2026-04-15 13:35 36.46319 137.89413 36990 ft 488 kts 28°
2026-04-15 13:35 36.51954 137.94029 36986 ft 488 kts 27°
2026-04-15 13:36 36.57679 137.98586 36991 ft 489 kts 27°
2026-04-15 13:36 36.63410 138.03185 36995 ft 491 kts 27°
2026-04-15 13:37 36.69155 138.07816 36986 ft 492 kts 27°
2026-04-15 13:37 36.74897 138.12452 36990 ft 492 kts 27°
2026-04-15 13:38 36.80635 138.17094 36983 ft 491 kts 27°
2026-04-15 13:38 36.86317 138.21700 36994 ft 489 kts 27°
2026-04-15 13:39 36.92019 138.26330 36995 ft 488 kts 27°
2026-04-15 13:39 36.97711 138.30957 37001 ft 488 kts 27°
2026-04-15 13:40 37.03389 138.35583 37001 ft 487 kts 27°
2026-04-15 13:40 37.09060 138.40212 36993 ft 486 kts 27°
2026-04-15 13:41 37.14720 138.44841 37008 ft 485 kts 27°
2026-04-15 13:41 37.20369 138.49469 36994 ft 485 kts 28°
2026-04-15 13:42 37.26004 138.54093 37006 ft 483 kts 27°
2026-04-15 13:42 37.31606 138.58656 37019 ft 483 kts 27°
2026-04-15 13:43 37.37262 138.63259 37006 ft 485 kts 27°
2026-04-15 13:43 37.42930 138.67889 37011 ft 487 kts 27°
2026-04-15 13:44 37.48620 138.72543 36999 ft 489 kts 28°
2026-04-15 13:44 37.54326 138.77222 37003 ft 490 kts 28°
2026-04-15 13:45 37.60042 138.81918 36990 ft 491 kts 28°
2026-04-15 13:47 37.82892 139.00779 35324 ft 491 kts 29°
2026-04-15 13:47 37.85758 139.03154 34656 ft 493 kts 30°
2026-04-15 13:47 37.88638 139.05544 33969 ft 495 kts 30°
2026-04-15 13:48 37.91510 139.07930 33394 ft 492 kts 30°
2026-04-15 13:48 37.94365 139.10304 32862 ft 489 kts 30°
2026-04-15 13:48 37.97213 139.12499 32299 ft 483 kts 25°
2026-04-15 13:48 38.00198 139.14446 31692 ft 481 kts 23°
2026-04-15 13:49 38.03185 139.16305 31209 ft 476 kts 22°
2026-04-15 13:49 38.06157 139.18130 30724 ft 472 kts 22°
2026-04-15 13:49 38.09106 139.19946 30260 ft 469 kts 22°
2026-04-15 13:49 38.12019 139.21757 29752 ft 465 kts 22°
2026-04-15 13:50 38.14905 139.23567 29228 ft 460 kts 22°
2026-04-15 13:50 38.17761 139.25371 28742 ft 456 kts 23°
2026-04-15 13:50 38.20579 139.27159 28263 ft 450 kts 22°
2026-04-15 13:50 38.23368 139.28931 27783 ft 446 kts 22°
2026-04-15 13:51 38.26132 139.30689 27322 ft 442 kts 22°
2026-04-15 13:51 38.28866 139.32429 26864 ft 437 kts 22°
2026-04-15 13:51 38.31575 139.34153 26419 ft 433 kts 22°
2026-04-15 13:51 38.34225 139.35841 25984 ft 429 kts 22°
2026-04-15 13:52 38.36884 139.37537 25546 ft 426 kts 22°
2026-04-15 13:52 38.39522 139.39219 25112 ft 423 kts 22°
2026-04-15 13:52 38.42142 139.40892 24677 ft 419 kts 22°
2026-04-15 13:52 38.44739 139.42551 24242 ft 417 kts 22°
2026-04-15 13:53 38.47322 139.44203 23806 ft 414 kts 22°
2026-04-15 13:53 38.49892 139.45848 23325 ft 412 kts 22°
2026-04-15 13:53 38.52441 139.47480 22850 ft 408 kts 22°
2026-04-15 13:53 38.54967 139.49100 22405 ft 404 kts 22°
2026-04-15 13:54 38.57467 139.50704 21971 ft 400 kts 22°
2026-04-15 13:54 38.59942 139.52294 21547 ft 396 kts 22°
2026-04-15 13:54 38.62397 139.53872 21134 ft 393 kts 22°
2026-04-15 13:54 38.64825 139.55432 20710 ft 389 kts 22°
2026-04-15 13:55 38.67236 139.56984 20307 ft 386 kts 22°
2026-04-15 13:55 38.69624 139.58522 19900 ft 383 kts 22°
2026-04-15 13:55 38.71955 139.60025 19628 ft 376 kts 22°
2026-04-15 13:55 38.74269 139.61521 19387 ft 369 kts 22°
2026-04-15 13:56 38.76550 139.62996 19128 ft 365 kts 21°
2026-04-15 13:56 38.78804 139.64453 18791 ft 362 kts 21°
2026-04-15 13:56 38.81046 139.65902 18418 ft 360 kts 21°
2026-04-15 13:56 38.83274 139.67343 17998 ft 358 kts 22°
2026-04-15 13:57 38.85494 139.68780 17566 ft 356 kts 22°
2026-04-15 13:57 38.87698 139.70208 17135 ft 354 kts 22°
2026-04-15 13:57 38.89887 139.71628 16733 ft 351 kts 22°
2026-04-15 13:57 38.92061 139.73039 16325 ft 349 kts 23°
2026-04-15 13:58 38.94220 139.74442 15924 ft 346 kts 23°
2026-04-15 13:58 38.96365 139.75836 15541 ft 344 kts 23°
2026-04-15 13:58 38.98495 139.77221 15148 ft 342 kts 24°
2026-04-15 13:58 39.00611 139.78599 14761 ft 340 kts 24°
2026-04-15 13:59 39.02715 139.79969 14371 ft 338 kts 24°
2026-04-15 13:59 39.04807 139.81332 13980 ft 336 kts 24°
2026-04-15 13:59 39.06890 139.82691 13586 ft 335 kts 25°
2026-04-15 13:59 39.08935 139.84038 13385 ft 326 kts 25°
2026-04-15 14:00 39.10942 139.85367 13030 ft 323 kts 25°
2026-04-15 14:00 39.12903 139.86667 12655 ft 320 kts 25°
2026-04-15 14:00 39.14881 139.87980 12288 ft 318 kts 26°
2026-04-15 14:00 39.16842 139.89281 11906 ft 316 kts 26°
2026-04-15 14:01 39.20734 139.91865 11175 ft 313 kts 26°
2026-04-15 14:01 39.22664 139.93148 10801 ft 311 kts 27°
2026-04-15 14:01 39.24577 139.94421 10432 ft 305 kts 27°
2026-04-15 14:02 39.26428 139.95653 10223 ft 292 kts 27°
2026-04-15 14:02 39.28204 139.96834 10095 ft 283 kts 27°
2026-04-15 14:02 39.29935 139.97987 9881 ft 278 kts 27°
2026-04-15 14:02 39.31608 139.99223 9543 ft 277 kts 40°
2026-04-15 14:03 39.32808 140.01063 9370 ft 268 kts 57°
2026-04-15 14:03 39.33801 140.03100 9071 ft 267 kts 59°
2026-04-15 14:03 39.34756 140.05151 8769 ft 266 kts 59°
2026-04-15 14:03 39.35704 140.07196 8473 ft 265 kts 59°
2026-04-15 14:04 39.36650 140.09229 8170 ft 264 kts 59°
2026-04-15 14:04 39.37598 140.11256 7876 ft 263 kts 59°
2026-04-15 14:04 39.38545 140.13272 7579 ft 262 kts 58°
2026-04-15 14:04 39.39492 140.15286 7290 ft 262 kts 58°
2026-04-15 14:05 39.40438 140.17293 6991 ft 261 kts 58°
2026-04-15 14:05 39.41383 140.19298 6690 ft 261 kts 58°
2026-04-15 14:05 39.42326 140.21296 6400 ft 260 kts 57°
2026-04-15 14:05 39.43267 140.23291 6089 ft 260 kts 57°
2026-04-15 14:06 39.44206 140.25283 5781 ft 259 kts 57°
2026-04-15 14:06 39.45130 140.27243 5481 ft 258 kts 58°
2026-04-15 14:06 39.46061 140.29221 5193 ft 257 kts 58°
2026-04-15 14:06 39.46991 140.31195 4899 ft 256 kts 58°
2026-04-15 14:07 39.47917 140.33163 4644 ft 254 kts 58°
2026-04-15 14:07 39.48820 140.35083 4529 ft 246 kts 58°
2026-04-15 14:07 39.49697 140.36949 4400 ft 239 kts 58°
2026-04-15 14:07 39.50546 140.38756 4294 ft 231 kts 58°
2026-04-15 14:08 39.51554 140.40303 4149 ft 224 kts 32°
2026-04-15 14:08 39.52997 140.40994 3934 ft 223 kts
2026-04-15 14:08 39.54542 140.41262 3669 ft 225 kts
2026-04-15 14:08 39.56105 140.41478 3404 ft 225 kts
2026-04-15 14:09 39.57624 140.41621 3105 ft 218 kts 353°
2026-04-15 14:09 39.58892 140.40806 2987 ft 197 kts 308°
2026-04-15 14:09 39.59488 140.39322 2807 ft 179 kts 295°
2026-04-15 14:09 39.59968 140.37891 2565 ft 166 kts 283°
2026-04-15 14:10 39.60216 140.36490 2356 ft 153 kts 279°
2026-04-15 14:10 39.60376 140.35200 2216 ft 139 kts 276°
2026-04-15 14:10 39.60496 140.33921 1991 ft 142 kts 275°
2026-04-15 14:10 39.60608 140.32662 1793 ft 138 kts 275°
2026-04-15 14:11 39.60716 140.31435 1603 ft 136 kts 275°
2026-04-15 14:11 39.60823 140.30219 1428 ft 136 kts 275°
2026-04-15 14:11 39.60929 140.29016 1244 ft 136 kts 275°
2026-04-15 14:11 39.61037 140.27805 1053 ft 134 kts 276°
2026-04-15 14:12 39.61143 140.26603 861 ft 134 kts 276°
2026-04-15 14:12 39.61249 140.25409 688 ft 133 kts 276°
2026-04-15 14:12 39.61355 140.24216 512 ft 133 kts 276°
2026-04-15 14:12 39.61462 140.23026 338 ft 132 kts 276°
2026-04-15 14:13 39.61544 140.22109 312 ft 54 kts 276°
2026-04-15 14:13 39.61566 140.21843 309 ft 20 kts 276°
2026-04-15 14:13 39.61555 140.21708 309 ft 15 kts 229°
2026-04-15 14:13 39.61465 140.21677 308 ft 13 kts 181°
2026-04-15 14:14 39.61407 140.21750 309 ft 13 kts 98°
2026-04-15 14:14 39.61398 140.21862 310 ft 12 kts 106°
2026-04-15 14:14 39.61335 140.21932 310 ft 12 kts 170°
2026-04-15 14:14 39.61257 140.21919 309 ft 11 kts 188°
2026-04-15 14:15 39.61248 140.21918 310 ft 0 kts 188°